Precipitable_Water
1.24 1.18 1.17 1.20 1.18 1.15 1.12 1.15 1.16 1.15 1.05 1.00 0.96 0.97 0.98 1.02 1.04 1.03 1.02 1.00 1.01 0.99 0.98 0.96 0.94 0.92 0.85 0.77 0.71 0.67 0.71 0.75 0.74 0.72 0.71 0.70 0.69 0.68 0.68 0.69 0.69 0.70 0.74 0.80 0.92 0.90 0.90 0.92 0.92 0.95 0.97 0.90 0.90 0.89 0.87 0.83 0.77 0.74 0.67 0.69 0.66 0.64 0.61 0.59 0.55 0.50 0.56 0.61 0.52 0.47 0.49 0.51 0.51 0.55 0.55 0.56 0.56 0.61 0.63 0.63 0.60 0.61 0.62 0.61 0.61
1.23 1.18 1.19 1.22 1.22 1.17 1.15 1.16 1.16 1.15 1.03 1.00 0.98 0.99 1.00 1.03 1.03 0.99 0.97 1.00 1.00 0.98 0.97 0.95 0.93 0.90 0.84 0.77 0.70 0.66 0.69 0.74 0.72 0.70 0.67 0.66 0.66 0.65 0.65 0.65 0.68 0.68 0.70 0.73 0.88 0.94 0.89 0.87 0.87 0.87 0.92 0.87 0.80 0.79 0.77 0.74 0.73 0.71 0.67 0.68 0.69 0.67 0.72 0.66 0.66 0.54 0.55 0.60 0.54 0.52 0.53 0.54 0.52 0.57 0.57 0.58 0.58 0.61 0.61 0.64 0.63 0.65 0.64 0.64 0.63
1.23 1.21 1.20 1.22 1.20 1.19 1.18 1.16 1.14 1.10 1.03 1.00 1.00 1.01 1.01 1.03 1.02 0.96 0.95 0.95 0.98 0.97 0.95 0.91 0.90 0.89 0.82 0.76 0.68 0.64 0.68 0.72 0.72 0.68 0.65 0.62 0.60 0.59 0.60 0.59 0.61 0.64 0.64 0.66 0.71 0.84 0.84 0.84 0.82 0.83 0.82 0.78 0.74 0.77 0.76 0.72 0.74 0.73 0.72 0.72 0.74 0.73 0.72 0.72 0.72 0.67 0.58 0.57 0.60 0.54 0.55 0.55 0.55 0.56 0.59 0.62 0.64 0.64 0.62 0.65 0.66 0.67 0.68 0.69 0.69
1.18 1.19 1.20 1.21 1.23 1.15 1.15 1.17 1.13 1.08 1.04 1.01 1.00 1.01 1.01 1.03 1.02 1.00 0.94 0.91 0.94 0.95 0.92 0.90 0.89 0.87 0.79 0.72 0.66 0.61 0.61 0.65 0.66 0.65 0.61 0.59 0.55 0.52 0.51 0.54 0.59 0.63 0.63 0.62 0.61 0.65 0.71 0.73 0.70 0.70 0.72 0.72 0.71 0.75 0.76 0.77 0.73 0.75 0.74 0.77 0.74 0.76 0.76 0.77 0.73 0.73 0.74 0.63 0.63 0.60 0.62 0.60 0.60 0.62 0.64 0.67 0.67 0.68 0.67 0.68 0.69 0.68 0.68 0.70 0.72
1.19 1.21 1.21 1.21 1.22 1.16 1.18 1.20 1.13 1.07 1.06 1.01 0.99 1.01 1.03 1.03 1.05 1.01 0.96 0.89 0.89 0.88 0.87 0.90 0.88 0.84 0.77 0.69 0.65 0.60 0.56 0.57 0.61 0.62 0.61 0.60 0.60 0.57 0.58 0.60 0.63 0.65 0.66 0.67 0.65 0.65 0.64 0.66 0.67 0.72 0.73 0.73 0.72 0.72 0.74 0.73 0.76 0.76 0.76 0.78 0.75 0.79 0.80 0.78 0.78 0.77 0.76 0.73 0.72 0.68 0.67 0.67 0.65 0.67 0.66 0.65 0.67 0.70 0.70 0.70 0.72 0.71 0.70 0.73 0.75
1.22 1.23 1.26 1.24 1.20 1.16 1.24 1.29 1.20 1.10 1.07 1.02 0.96 1.01 1.04 1.04 1.03 1.02 0.97 0.89 0.84 0.82 0.83 0.85 0.84 0.81 0.75 0.71 0.67 0.62 0.58 0.57 0.57 0.60 0.63 0.68 0.69 0.69 0.70 0.69 0.69 0.68 0.69 0.69 0.71 0.73 0.72 0.71 0.71 0.72 0.72 0.71 0.70 0.72 0.71 0.73 0.71 0.71 0.72 0.73 0.71 0.77 0.73 0.76 0.78 0.79 0.78 0.78 0.78 0.70 0.70 0.68 0.65 0.67 0.68 0.66 0.66 0.67 0.67 0.70 0.74 0.74 0.72 0.72 0.73
1.22 1.24 1.18 1.16 1.14 1.12 1.14 1.14 1.20 1.14 1.09 1.02 0.97 1.01 1.03 1.03 1.02 1.00 0.99 0.92 0.83 0.79 0.79 0.81 0.82 0.80 0.78 0.74 0.69 0.64 0.60 0.59 0.62 0.66 0.69 0.71 0.72 0.74 0.75 0.75 0.74 0.74 0.74 0.74 0.75 0.75 0.75 0.75 0.75 0.76 0.74 0.74 0.73 0.71 0.73 0.72 0.73 0.73 0.73 0.74 0.73 0.75 0.75 0.76 0.77 0.78 0.79 0.80 0.81 0.80 0.74 0.72 0.68 0.65 0.68 0.69 0.68 0.67 0.64 0.65 0.65 0.70 0.73 0.73 0.71
1.20 1.21 1.18 1.17 1.12 1.14 1.14 1.17 1.20 1.21 1.16 1.06 0.98 1.01 1.02 1.02 1.03 1.01 0.98 0.91 0.83 0.79 0.78 0.80 0.84 0.85 0.82 0.75 0.72 0.68 0.65 0.66 0.70 0.71 0.72 0.73 0.74 0.73 0.73 0.72 0.71 0.71 0.72 0.73 0.74 0.75 0.76 0.74 0.72 0.72 0.73 0.74 0.76 0.78 0.79 0.79 0.78 0.77 0.78 0.76 0.77 0.75 0.76 0.77 0.75 0.75 0.75 0.74 0.73 0.74 0.74 0.70 0.68 0.70 0.69 0.66 0.63 0.64 0.66 0.64 0.62 0.65 0.67 0.72 0.72
1.18 1.18 1.16 1.13 1.12 1.11 1.13 1.17 1.20 1.16 1.20 1.10 1.01 0.99 1.00 1.01 1.01 0.99 0.96 0.93 0.90 0.86 0.84 0.82 0.80 0.86 0.83 0.83 0.77 0.73 0.71 0.73 0.74 0.75 0.75 0.73 0.74 0.72 0.71 0.70 0.70 0.70 0.70 0.72 0.73 0.75 0.76 0.79 0.82 0.83 0.85 0.82 0.81 0.85 0.86 0.87 0.86 0.82 0.81 0.81 0.79 0.77 0.76 0.74 0.74 0.72 0.71 0.70 0.70 0.72 0.70 0.68 0.67 0.65 0.64 0.62 0.61 0.61 0.66 0.66 0.65 0.67 0.69 0.70 0.73
1.25 1.21 1.15 1.12 1.14 1.15 1.16 1.17 1.17 1.15 1.19 1.15 1.05 1.01 1.02 1.03 1.02 0.99 0.96 0.93 0.91 0.91 0.92 0.89 0.85 0.85 0.82 0.82 0.82 0.79 0.84 0.88 0.76 0.75 0.78 0.76 0.73 0.72 0.71 0.72 0.69 0.70 0.70 0.70 0.70 0.70 0.73 0.76 0.80 0.81 0.82 0.84 0.86 0.86 0.87 0.85 0.85 0.87 0.89 0.88 0.84 0.80 0.77 0.75 0.73 0.72 0.68 0.66 0.66 0.67 0.65 0.66 0.67 0.68 0.65 0.66 0.66 0.66 0.64 0.65 0.63 0.67 0.68 0.68 0.71
1.20 1.23 1.18 1.19 1.20 1.21 1.18 1.17 1.17 1.15 1.15 1.19 1.13 1.05 1.06 1.08 1.07 1.05 1.00 0.97 0.94 0.91 0.91 0.88 0.93 0.90 0.88 0.84 0.82 0.90 0.88 0.76 0.74 0.73 0.72 0.71 0.78 0.76 0.71 0.70 0.69 0.69 0.69 0.68 0.68 0.70 0.72 0.76 0.81 0.82 0.82 0.85 0.87 0.88 0.88 0.88 0.88 0.88 0.87 0.85 0.85 0.84 0.80 0.78 0.76 0.75 0.71 0.67 0.67 0.66 0.64 0.63 0.66 0.68 0.66 0.70 0.72 0.66 0.64 0.65 0.65 0.66 0.65 0.62 0.59
1.21 1.19 1.20 1.19 1.18 1.18 1.19 1.18 1.18 1.16 1.15 1.14 1.15 1.09 1.02 1.06 1.09 1.08 1.05 1.02 1.00 0.98 0.93 0.91 0.87 0.86 0.86 0.89 0.94 0.87 0.79 0.79 0.77 0.75 0.72 0.71 0.69 0.73 0.75 0.75 0.73 0.69 0.70 0.71 0.72 0.75 0.77 0.80 0.86 0.88 0.86 0.88 0.90 0.90 0.89 0.89 0.89 0.89 0.88 0.87 0.86 0.87 0.85 0.81 0.77 0.76 0.77 0.75 0.74 0.73 0.72 0.70 0.70 0.71 0.71 0.72 0.72 0.74 0.73 0.71 0.70 0.64 0.65 0.62 0.61
1.17 1.14 1.16 1.19 1.18 1.18 1.18 1.16 1.20 1.20 1.19 1.17 1.17 1.16 1.07 1.13 1.15 1.13 1.12 1.11 1.08 1.02 0.97 0.95 0.93 0.94 0.91 0.84 0.82 0.82 0.82 0.82 0.81 0.77 0.75 0.73 0.72 0.70 0.74 0.77 0.75 0.72 0.75 0.76 0.77 0.78 0.81 0.87 0.90 0.92 0.92 0.90 0.90 0.93 0.94 0.91 0.89 0.89 0.90 0.89 0.89 0.87 0.85 0.84 0.84 0.81 0.80 0.76 0.73 0.73 0.73 0.74 0.73 0.74 0.76 0.77 0.78 0.72 0.72 0.72 0.70 0.66 0.65 0.62 0.62
1.14 1.13 1.15 1.15 1.16 1.16 1.18 1.17 1.16 1.16 1.16 1.17 1.17 1.15 1.11 1.09 1.10 1.13 1.15 1.13 1.10 1.07 1.05 0.98 0.97 0.97 0.92 0.87 0.85 0.87 0.87 0.87 0.85 0.82 0.79 0.77 0.75 0.74 0.78 0.80 0.80 0.81 0.83 0.85 0.86 0.87 0.88 0.88 0.90 0.94 0.99 0.99 0.94 0.93 0.96 0.95 0.93 0.89 0.88 0.87 0.88 0.89 0.87 0.86 0.85 0.84 0.83 0.79 0.74 0.67 0.72 0.75 0.72 0.75 0.80 0.80 0.74 0.71 0.70 0.70 0.73 0.70 0.68 0.65 0.70
1.10 1.09 1.12 1.10 1.13 1.15 1.14 1.14 1.14 1.13 1.14 1.14 1.13 1.11 1.11 1.12 1.11 1.12 1.13 1.12 1.09 1.04 1.01 0.97 0.96 0.97 0.88 0.83 0.85 0.84 0.88 0.90 0.89 0.86 0.84 0.83 0.81 0.80 0.85 0.84 0.82 0.83 0.85 0.87 0.87 0.87 0.88 0.89 0.88 0.89 0.94 0.98 1.01 0.99 0.97 0.98 0.97 0.95 0.93 0.91 0.90 0.91 0.92 0.90 0.87 0.87 0.86 0.82 0.76 0.72 0.72 0.73 0.75 0.79 0.83 0.84 0.82 0.80 0.79 0.75 0.76 0.76 0.78 0.77 0.75
1.07 1.10 1.10 1.09 1.10 1.11 1.12 1.13 1.13 1.14 1.11 1.11 1.09 1.07 1.07 1.05 1.04 1.07 1.07 1.07 1.06 1.04 1.02 1.01 0.99 0.97 0.95 0.93 0.92 0.89 0.89 0.89 0.88 0.87 0.86 0.85 0.86 0.86 0.89 0.86 0.88 0.88 0.90 0.91 0.90 0.92 0.93 0.94 0.93 0.94 0.96 0.99 1.03 1.00 0.97 0.98 0.98 0.96 0.92 0.91 0.90 0.92 0.92 0.95 0.95 0.94 0.91 0.87 0.83 0.81 0.81 0.81 0.79 0.79 0.80 0.82 0.83 0.82 0.80 0.80 0.80 0.76 0.70 0.66 0.61
1.01 1.03 1.04 1.06 1.07 1.07 1.07 1.06 1.06 1.07 1.07 1.07 1.05 1.04 1.03 1.01 1.00 1.01 0.99 0.99 1.00 1.00 1.00 0.99 0.98 0.97 0.98 0.99 0.97 0.92 0.89 0.87 0.85 0.85 0.84 0.85 0.88 0.89 0.88 0.89 0.90 0.91 0.93 0.96 0.97 0.98 0.99 1.00 1.00 1.00 1.02 1.06 1.05 1.04 1.02 0.98 0.93 0.90 0.87 0.86 0.88 0.88 0.89 0.94 0.92 0.89 0.85 0.82 0.81 0.80 0.80 0.80 0.79 0.78 0.78 0.79 0.79 0.81 0.79 0.71 0.66 0.69 0.64 0.60 0.61
0.96 0.97 0.98 1.00 1.00 1.01 1.01 1.00 1.00 1.00 1.02 1.02 1.03 1.03 1.03 1.04 1.03 1.05 1.00 0.98 0.97 0.97 0.98 0.97 0.96 0.95 0.96 0.96 0.95 0.90 0.87 0.86 0.84 0.84 0.84 0.85 0.86 0.88 0.88 0.89 0.91 0.93 0.96 0.99 1.00 1.02 1.06 1.07 1.08 1.08 1.08 1.13 1.06 1.04 0.99 0.93 0.86 0.84 0.84 0.83 0.83 0.83 0.86 0.93 0.90 0.89 0.86 0.82 0.81 0.80 0.80 0.80 0.79 0.78 0.78 0.78 0.79 0.80 0.75 0.66 0.69 0.66 0.62 0.62 0.61
0.89 0.92 0.93 0.94 0.94 0.95 0.95 0.96 0.95 0.96 0.96 0.96 0.96 0.95 0.96 0.97 1.00 1.00 0.99 0.98 0.98 0.98 0.98 0.98 0.98 0.99 0.98 0.96 0.94 0.93 0.90 0.89 0.87 0.85 0.83 0.83 0.86 0.89 0.88 0.88 0.88 0.91 0.92 0.94 1.00 1.02 1.05 1.04 1.00 0.99 0.99 0.96 0.93 0.90 0.87 0.85 0.82 0.80 0.80 0.78 0.75 0.73 0.76 0.81 0.83 0.83 0.83 0.81 0.79 0.78 0.78 0.79 0.79 0.79 0.77 0.78 0.79 0.80 0.80 0.77 0.77 0.70 0.65 0.64 0.63
0.84 0.86 0.87 0.88 0.89 0.89 0.89 0.88 0.89 0.90 0.90 0.90 0.90 0.89 0.90 0.90 0.92 0.94 0.94 0.95 0.95 0.95 0.96 0.96 0.94 0.95 0.97 0.97 0.96 0.98 0.98 0.94 0.90 0.89 0.89 0.88 0.86 0.86 0.84 0.82 0.84 0.87 0.90 0.89 0.87 0.90 0.92 0.98 0.98 0.95 0.90 0.87 0.84 0.83 0.82 0.82 0.79 0.81 0.79 0.75 0.71 0.69 0.78 0.79 0.83 0.84 0.85 0.83 0.80 0.79 0.79 0.80 0.81 0.80 0.78 0.77 0.77 0.77 0.79 0.79 0.76 0.73 0.69 0.66 0.65
0.77 0.78 0.78 0.78 0.79 0.80 0.83 0.84 0.85 0.86 0.87 0.86 0.87 0.87 0.88 0.87 0.87 0.86 0.86 0.88 0.89 0.90 0.89 0.89 0.89 0.90 0.91 0.91 0.89 0.90 0.90 0.91 0.90 0.89 0.88 0.87 0.86 0.86 0.86 0.86 0.86 0.86 0.87 0.85 0.86 0.86 0.89 0.91 0.98 0.95 0.91 0.87 0.84 0.82 0.82 0.82 0.82 0.82 0.82 0.79 0.80 0.83 0.84 0.81 0.84 0.85 0.83 0.82 0.81 0.79 0.78 0.77 0.77 0.76 0.74 0.72 0.71 0.71 0.72 0.73 0.75 0.75 0.72 0.69 0.68
0.72 0.72 0.73 0.72 0.70 0.69 0.70 0.72 0.74 0.76 0.78 0.79 0.77 0.76 0.78 0.78 0.78 0.78 0.78 0.78 0.78 0.79 0.80 0.81 0.81 0.80 0.80 0.80 0.82 0.84 0.85 0.82 0.83 0.81 0.80 0.80 0.79 0.79 0.82 0.83 0.80 0.79 0.78 0.78 0.78 0.80 0.82 0.82 0.85 0.84 0.83 0.83 0.81 0.80 0.81 0.83 0.84 0.83 0.83 0.85 0.86 0.86 0.86 0.86 0.88 0.87 0.83 0.81 0.80 0.78 0.75 0.73 0.71 0.69 0.67 0.66 0.67 0.69 0.71 0.72 0.73 0.75 0.76 0.76 0.74
0.69 0.68 0.68 0.67 0.68 0.67 0.68 0.68 0.67 0.69 0.68 0.69 0.68 0.67 0.68 0.69 0.69 0.69 0.69 0.68 0.68 0.69 0.69 0.70 0.70 0.71 0.72 0.72 0.73 0.75 0.76 0.77 0.73 0.75 0.74 0.74 0.75 0.76 0.75 0.75 0.76 0.79 0.77 0.75 0.75 0.76 0.79 0.79 0.81 0.78 0.75 0.73 0.73 0.74 0.75 0.77 0.78 0.79 0.82 0.84 0.87 0.89 0.89 0.88 0.87 0.86 0.83 0.81 0.79 0.74 0.72 0.68 0.65 0.63 0.65 0.66 0.67 0.69 0.70 0.73 0.75 0.76 0.76 0.76 0.77
0.73 0.71 0.71 0.69 0.69 0.68 0.67 0.67 0.67 0.66 0.65 0.65 0.65 0.64 0.64 0.64 0.64 0.64 0.64 0.65 0.64 0.64 0.63 0.63 0.63 0.62 0.61 0.61 0.62 0.63 0.63 0.64 0.66 0.64 0.65 0.66 0.66 0.67 0.67 0.66 0.66 0.66 0.66 0.65 0.68 0.70 0.70 0.72 0.70 0.67 0.68 0.69 0.69 0.69 0.69 0.69 0.69 0.71 0.75 0.79 0.82 0.84 0.85 0.86 0.85 0.84 0.81 0.77 0.72 0.68 0.66 0.66 0.65 0.64 0.65 0.67 0.68 0.70 0.72 0.73 0.73 0.72 0.71 0.70 0.71
0.72 0.71 0.70 0.69 0.68 0.67 0.66 0.64 0.63 0.62 0.62 0.61 0.60 0.60 0.59 0.60 0.60 0.60 0.61 0.60 0.60 0.59 0.59 0.59 0.58 0.58 0.58 0.58 0.59 0.60 0.61 0.61 0.62 0.61 0.58 0.58 0.57 0.57 0.56 0.55 0.54 0.53 0.52 0.54 0.55 0.55 0.53 0.51 0.51 0.51 0.52 0.53 0.54 0.56 0.56 0.55 0.56 0.57 0.58 0.60 0.63 0.66 0.70 0.73 0.75 0.76 0.73 0.70 0.67 0.67 0.67 0.67 0.66 0.68 0.70 0.70 0.70 0.71 0.69 0.69 0.70 0.70 0.70 0.71 0.71
0.67 0.66 0.66 0.66 0.66 0.65 0.64 0.63 0.62 0.61 0.60 0.59 0.57 0.57 0.56 0.55 0.54 0.55 0.55 0.54 0.54 0.52 0.50 0.50 0.50 0.49 0.50 0.50 0.50 0.51 0.52 0.53 0.54 0.55 0.53 0.52 0.51 0.49 0.47 0.46 0.46 0.45 0.44 0.43 0.44 0.44 0.44 0.43 0.42 0.43 0.43 0.46 0.48 0.48 0.48 0.49 0.49 0.48 0.49 0.49 0.50 0.52 0.56 0.60 0.64 0.65 0.64 0.65 0.65 0.66 0.69 0.71 0.69 0.71 0.72 0.70 0.68 0.66 0.67 0.65 0.66 0.67 0.67 0.65 0.63
0.62 0.60 0.59 0.59 0.59 0.59 0.58 0.57 0.58 0.57 0.56 0.56 0.55 0.54 0.54 0.54 0.53 0.51 0.50 0.49 0.49 0.47 0.46 0.44 0.44 0.43 0.43 0.43 0.44 0.44 0.46 0.45 0.46 0.46 0.45 0.43 0.42 0.41 0.41 0.42 0.41 0.41 0.41 0.44 0.43 0.41 0.39 0.37 0.35 0.35 0.36 0.38 0.40 0.42 0.41 0.42 0.42 0.43 0.44 0.46 0.47 0.50 0.52 0.53 0.55 0.57 0.58 0.59 0.62 0.62 0.65 0.64 0.65 0.65 0.66 0.64 0.61 0.63 0.67 0.64 0.60 0.56 0.56 0.57 0.55
0.57 0.56 0.56 0.56 0.55 0.55 0.55 0.54 0.54 0.54 0.53 0.52 0.51 0.51 0.51 0.50 0.48 0.45 0.45 0.44 0.42 0.42 0.42 0.40 0.39 0.38 0.37 0.37 0.37 0.38 0.38 0.40 0.40 0.37 0.36 0.36 0.36 0.36 0.36 0.37 0.37 0.37 0.36 0.37 0.35 0.34 0.33 0.33 0.34 0.36 0.38 0.38 0.38 0.39 0.40 0.42 0.44 0.45 0.46 0.47 0.47 0.46 0.49 0.54 0.57 0.58 0.59 0.60 0.63 0.66 0.66 0.61 0.58 0.58 0.58 0.58 0.56 0.56 0.58 0.58 0.57 0.56 0.56 0.54 0.50
0.54 0.53 0.53 0.53 0.52 0.52 0.51 0.51 0.50 0.50 0.49 0.49 0.47 0.47 0.45 0.45 0.45 0.45 0.45 0.44 0.41 0.39 0.38 0.39 0.38 0.38 0.38 0.37 0.36 0.35 0.36 0.37 0.37 0.38 0.37 0.37 0.35 0.34 0.34 0.34 0.34 0.34 0.34 0.34 0.33 0.33 0.33 0.32 0.32 0.32 0.32 0.32 0.34 0.35 0.36 0.39 0.41 0.43 0.44 0.45 0.47 0.47 0.48 0.48 0.48 0.52 0.57 0.60 0.58 0.55 0.53 0.54 0.53 0.54 0.53 0.51 0.52 0.54 0.54 0.52 0.52 0.50 0.50 0.48 0.42
0.53 0.52 0.52 0.51 0.50 0.50 0.50 0.49 0.48 0.47 0.47 0.46 0.46 0.45 0.46 0.45 0.45 0.44 0.43 0.43 0.43 0.42 0.40 0.38 0.39 0.39 0.38 0.39 0.39 0.34 0.34 0.35 0.37 0.37 0.37 0.36 0.36 0.36 0.35 0.35 0.35 0.35 0.35 0.35 0.34 0.31 0.30 0.30 0.30 0.31 0.31 0.31 0.31 0.32 0.34 0.36 0.37 0.39 0.39 0.42 0.42 0.44 0.47 0.49 0.50 0.52 0.56 0.56 0.53 0.52 0.51 0.50 0.48 0.48 0.46 0.45 0.47 0.49 0.49 0.47 0.47 0.48 0.50 0.49 0.50
0.48 0.48 0.47 0.45 0.46 0.46 0.47 0.46 0.46 0.46 0.45 0.45 0.45 0.44 0.43 0.44 0.44 0.44 0.44 0.43 0.42 0.42 0.41 0.41 0.41 0.40 0.39 0.37 0.39 0.39 0.38 0.38 0.37 0.36 0.36 0.36 0.35 0.35 0.35 0.34 0.34 0.34 0.34 0.33 0.31 0.29 0.29 0.28 0.29 0.30 0.30 0.32 0.32 0.33 0.34 0.35 0.35 0.36 0.37 0.39 0.41 0.43 0.43 0.45 0.48 0.50 0.50 0.49 0.50 0.49 0.49 0.47 0.46 0.46 0.47 0.48 0.48 0.47 0.49 0.54 0.56 0.56 0.53 0.52 0.50
0.46 0.45 0.45 0.45 0.46 0.45 0.45 0.44 0.44 0.43 0.44 0.44 0.43 0.42 0.41 0.40 0.39 0.42 0.42 0.41 0.42 0.41 0.41 0.40 0.40 0.40 0.39 0.39 0.37 0.37 0.38 0.37 0.36 0.35 0.36 0.35 0.35 0.35 0.35 0.35 0.34 0.34 0.34 0.34 0.29 0.28 0.30 0.31 0.31 0.31 0.32 0.31 0.32 0.34 0.35 0.36 0.36 0.36 0.37 0.38 0.40 0.43 0.44 0.44 0.47 0.46 0.43 0.44 0.44 0.45 0.47 0.48 0.46 0.47 0.50 0.53 0.54 0.54 0.54 0.52 0.51 0.52 0.52 0.51 0.48
0.45 0.44 0.44 0.45 0.45 0.44 0.42 0.43 0.43 0.43 0.42 0.42 0.42 0.42 0.41 0.41 0.38 0.39 0.40 0.42 0.42 0.41 0.40 0.40 0.38 0.38 0.37 0.37 0.37 0.36 0.35 0.36 0.36 0.36 0.36 0.36 0.36 0.36 0.36 0.36 0.35 0.35 0.34 0.31 0.30 0.30 0.31 0.32 0.32 0.33 0.33 0.33 0.34 0.36 0.37 0.38 0.38 0.39 0.40 0.41 0.42 0.44 0.45 0.45 0.45 0.45 0.46 0.48 0.48 0.46 0.45 0.44 0.47 0.48 0.51 0.52 0.54 0.54 0.55 0.54 0.54 0.52 0.50 0.48 0.47
0.44 0.44 0.44 0.45 0.45 0.44 0.43 0.42 0.42 0.42 0.42 0.41 0.40 0.39 0.38 0.38 0.36 0.36 0.35 0.36 0.37 0.38 0.38 0.37 0.36 0.35 0.35 0.35 0.35 0.35 0.35 0.35 0.35 0.35 0.35 0.35 0.35 0.35 0.34 0.34 0.34 0.35 0.33 0.31 0.32 0.31 0.31 0.32 0.32 0.33 0.35 0.37 0.37 0.37 0.37 0.38 0.39 0.40 0.41 0.42 0.44 0.47 0.47 0.48 0.48 0.49 0.51 0.50 0.48 0.45 0.45 0.48 0.51 0.52 0.54 0.56 0.57 0.55 0.52 0.50 0.49 0.46 0.44 0.44 0.43
0.43 0.41 0.40 0.42 0.42 0.41 0.40 0.39 0.38 0.37 0.37 0.36 0.36 0.35 0.35 0.34 0.34 0.33 0.32 0.33 0.32 0.32 0.33 0.35 0.36 0.35 0.34 0.33 0.33 0.33 0.32 0.32 0.32 0.31 0.31 0.32 0.33 0.33 0.32 0.31 0.29 0.31 0.33 0.34 0.33 0.33 0.33 0.33 0.34 0.34 0.36 0.37 0.38 0.38 0.38 0.39 0.39 0.40 0.40 0.42 0.45 0.46 0.47 0.48 0.48 0.52 0.54 0.53 0.51 0.49 0.49 0.51 0.53 0.54 0.53 0.51 0.50 0.48 0.46 0.45 0.43 0.42 0.41 0.39 0.39
0.40 0.40 0.40 0.40 0.39 0.38 0.36 0.35 0.35 0.33 0.34 0.34 0.34 0.34 0.34 0.33 0.33 0.33 0.33 0.33 0.32 0.32 0.33 0.34 0.35 0.35 0.34 0.33 0.32 0.31 0.31 0.31 0.31 0.31 0.31 0.32 0.33 0.34 0.30 0.29 0.29 0.30 0.31 0.33 0.34 0.34 0.35 0.35 0.36 0.36 0.37 0.38 0.39 0.39 0.40 0.40 0.41 0.41 0.42 0.43 0.43 0.45 0.47 0.47 0.49 0.52 0.54 0.55 0.53 0.51 0.52 0.51 0.51 0.50 0.50 0.48 0.44 0.41 0.40 0.39 0.38 0.37 0.37 0.37 0.38
0.34 0.35 0.35 0.35 0.36 0.36 0.36 0.34 0.33 0.32 0.32 0.33 0.34 0.33 0.33 0.33 0.33 0.33 0.33 0.34 0.33 0.34 0.33 0.34 0.34 0.34 0.34 0.34 0.33 0.33 0.33 0.33 0.33 0.33 0.34 0.35 0.35 0.35 0.33 0.32 0.31 0.31 0.31 0.32 0.34 0.35 0.35 0.36 0.38 0.38 0.39 0.40 0.40 0.41 0.42 0.42 0.42 0.42 0.41 0.43 0.44 0.46 0.47 0.48 0.50 0.51 0.50 0.50 0.50 0.51 0.51 0.50 0.48 0.47 0.44 0.41 0.39 0.39 0.38 0.38 0.38 0.38 0.39 0.39 0.37
0.34 0.34 0.34 0.36 0.35 0.37 0.36 0.34 0.33 0.33 0.33 0.33 0.34 0.34 0.33 0.33 0.33 0.34 0.33 0.33 0.34 0.33 0.33 0.33 0.33 0.32 0.31 0.32 0.35 0.35 0.34 0.34 0.34 0.34 0.34 0.35 0.34 0.34 0.34 0.33 0.33 0.32 0.32 0.34 0.34 0.35 0.36 0.38 0.39 0.39 0.40 0.41 0.42 0.42 0.42 0.41 0.41 0.41 0.41 0.42 0.43 0.46 0.49 0.51 0.52 0.54 0.54 0.52 0.50 0.50 0.50 0.48 0.46 0.44 0.41 0.39 0.38 0.39 0.39 0.38 0.39 0.38 0.37 0.35 0.36
0.34 0.33 0.33 0.32 0.34 0.37 0.36 0.35 0.33 0.32 0.32 0.33 0.34 0.33 0.33 0.33 0.34 0.34 0.33 0.33 0.33 0.33 0.33 0.34 0.33 0.32 0.33 0.35 0.35 0.36 0.35 0.32 0.31 0.31 0.32 0.33 0.34 0.34 0.34 0.33 0.33 0.33 0.34 0.35 0.36 0.37 0.37 0.38 0.40 0.41 0.42 0.43 0.44 0.43 0.42 0.41 0.41 0.42 0.43 0.43 0.44 0.46 0.50 0.52 0.50 0.51 0.51 0.50 0.49 0.48 0.47 0.46 0.45 0.45 0.44 0.43 0.41 0.40 0.39 0.38 0.38 0.36 0.35 0.34 0.35
0.32 0.34 0.34 0.33 0.35 0.35 0.35 0.34 0.34 0.33 0.32 0.33 0.34 0.34 0.34 0.34 0.33 0.33 0.32 0.32 0.32 0.33 0.33 0.32 0.32 0.33 0.35 0.35 0.33 0.33 0.31 0.30 0.31 0.32 0.33 0.33 0.33 0.34 0.34 0.34 0.34 0.34 0.34 0.36 0.37 0.38 0.39 0.40 0.41 0.41 0.42 0.43 0.43 0.42 0.41 0.41 0.41 0.44 0.46 0.47 0.46 0.49 0.51 0.49 0.49 0.49 0.49 0.49 0.49 0.49 0.48 0.47 0.46 0.45 0.44 0.43 0.41 0.39 0.37 0.36 0.36 0.35 0.34 0.34 0.34
0.33 0.34 0.33 0.34 0.35 0.35 0.36 0.34 0.33 0.31 0.32 0.34 0.34 0.35 0.34 0.34 0.33 0.32 0.32 0.31 0.32 0.32 0.32 0.32 0.33 0.35 0.35 0.35 0.34 0.34 0.33 0.32 0.33 0.33 0.33 0.34 0.34 0.35 0.35 0.35 0.35 0.36 0.37 0.37 0.38 0.39 0.40 0.41 0.42 0.42 0.43 0.43 0.43 0.43 0.43 0.43 0.44 0.47 0.48 0.50 0.51 0.51 0.50 0.51 0.52 0.51 0.51 0.50 0.49 0.48 0.46 0.45 0.44 0.43 0.41 0.40 0.39 0.37 0.37 0.36 0.35 0.34 0.34 0.33 0.31
0.34 0.33 0.33 0.35 0.35 0.35 0.34 0.32 0.32 0.31 0.33 0.34 0.34 0.34 0.34 0.34 0.33 0.32 0.31 0.31 0.31 0.32 0.32 0.33 0.35 0.37 0.37 0.37 0.36 0.35 0.34 0.33 0.34 0.34 0.34 0.35 0.35 0.36 0.36 0.37 0.37 0.38 0.38 0.39 0.40 0.40 0.40 0.41 0.42 0.43 0.44 0.45 0.45 0.46 0.49 0.50 0.49 0.50 0.51 0.51 0.51 0.51 0.51 0.50 0.50 0.49 0.48 0.47 0.45 0.43 0.41 0.41 0.40 0.39 0.37 0.37 0.37 0.37 0.37 0.36 0.36 0.36 0.34 0.33 0.33
0.35 0.34 0.34 0.33 0.32 0.31 0.31 0.32 0.33 0.32 0.33 0.34 0.34 0.34 0.35 0.35 0.34 0.33 0.32 0.32 0.33 0.33 0.34 0.34 0.36 0.37 0.36 0.36 0.35 0.35 0.34 0.34 0.34 0.34 0.34 0.35 0.36 0.37 0.37 0.38 0.38 0.39 0.41 0.42 0.43 0.43 0.43 0.43 0.44 0.45 0.46 0.48 0.48 0.49 0.50 0.52 0.53 0.52 0.51 0.51 0.50 0.48 0.47 0.46 0.46 0.45 0.44 0.43 0.42 0.42 0.41 0.41 0.41 0.41 0.40 0.40 0.39 0.37 0.37 0.36 0.35 0.34 0.33 0.33 0.33
0.37 0.35 0.36 0.35 0.33 0.32 0.32 0.33 0.32 0.33 0.34 0.35 0.35 0.35 0.35 0.35 0.34 0.34 0.34 0.34 0.34 0.35 0.34 0.34 0.35 0.34 0.34 0.35 0.35 0.34 0.33 0.34 0.34 0.34 0.34 0.35 0.36 0.37 0.38 0.38 0.39 0.40 0.41 0.42 0.44 0.45 0.45 0.45 0.46 0.47 0.49 0.50 0.51 0.51 0.52 0.53 0.54 0.53 0.52 0.50 0.49 0.47 0.47 0.46 0.46 0.46 0.46 0.45 0.44 0.43 0.43 0.43 0.42 0.40 0.38 0.37 0.37 0.36 0.36 0.35 0.33 0.33 0.34 0.33 0.32
0.38 0.36 0.36 0.35 0.32 0.31 0.31 0.33 0.33 0.34 0.35 0.36 0.36 0.35 0.35 0.35 0.35 0.35 0.35 0.35 0.33 0.33 0.34 0.34 0.34 0.33 0.33 0.33 0.33 0.32 0.33 0.33 0.33 0.33 0.33 0.34 0.34 0.35 0.36 0.37 0.38 0.38 0.39 0.41 0.43 0.45 0.45 0.46 0.47 0.48 0.50 0.51 0.52 0.52 0.52 0.53 0.54 0.53 0.52 0.50 0.49 0.48 0.49 0.49 0.49 0.48 0.47 0.44 0.43 0.42 0.42 0.41 0.40 0.39 0.38 0.38 0.36 0.35 0.35 0.35 0.34 0.33 0.33 0.32 0.32
0.39 0.37 0.36 0.35 0.33 0.31 0.30 0.32 0.33 0.34 0.36 0.36 0.37 0.37 0.37 0.37 0.36 0.35 0.33 0.33 0.33 0.33 0.33 0.33 0.33 0.33 0.33 0.32 0.32 0.32 0.31 0.31 0.31 0.31 0.31 0.32 0.32 0.34 0.35 0.37 0.38 0.38 0.39 0.40 0.42 0.43 0.45 0.46 0.47 0.48 0.49 0.50 0.52 0.52 0.53 0.54 0.54 0.54 0.54 0.53 0.52 0.51 0.51 0.51 0.50 0.48 0.45 0.44 0.44 0.44 0.43 0.42 0.41 0.40 0.39 0.39 0.38 0.38 0.36 0.35 0.35 0.34 0.32 0.31 0.31
0.40 0.37 0.37 0.35 0.34 0.32 0.31 0.31 0.33 0.34 0.35 0.36 0.37 0.37 0.37 0.35 0.34 0.31 0.32 0.33 0.33 0.33 0.33 0.33 0.33 0.32 0.32 0.31 0.31 0.29 0.29 0.28 0.29 0.29 0.31 0.33 0.34 0.35 0.36 0.37 0.37 0.38 0.39 0.40 0.42 0.42 0.42 0.43 0.45 0.46 0.48 0.50 0.51 0.51 0.52 0.53 0.53 0.53 0.53 0.52 0.51 0.50 0.49 0.48 0.46 0.44 0.42 0.41 0.41 0.40 0.39 0.39 0.38 0.38 0.38 0.39 0.38 0.37 0.36 0.35 0.34 0.32 0.31 0.31 0.31
0.41 0.38 0.37 0.37 0.35 0.33 0.33 0.32 0.30 0.33 0.34 0.34 0.35 0.35 0.34 0.33 0.33 0.33 0.33 0.33 0.33 0.33 0.33 0.33 0.32 0.32 0.31 0.30 0.30 0.28 0.28 0.28 0.28 0.29 0.30 0.31 0.33 0.34 0.36 0.37 0.37 0.38 0.38 0.38 0.39 0.40 0.42 0.42 0.43 0.44 0.45 0.46 0.47 0.48 0.49 0.50 0.50 0.50 0.50 0.50 0.48 0.46 0.44 0.42 0.40 0.39 0.38 0.39 0.40 0.41 0.40 0.38 0.37 0.37 0.36 0.36 0.36 0.36 0.35 0.34 0.33 0.32 0.32 0.32 0.32
0.41 0.39 0.38 0.37 0.36 0.35 0.34 0.31 0.31 0.32 0.32 0.33 0.32 0.33 0.32 0.33 0.32 0.32 0.32 0.32 0.32 0.33 0.33 0.32 0.31 0.31 0.30 0.30 0.30 0.29 0.29 0.29 0.28 0.28 0.29 0.30 0.31 0.33 0.34 0.35 0.37 0.38 0.38 0.37 0.37 0.38 0.38 0.39 0.40 0.41 0.41 0.42 0.43 0.43 0.44 0.44 0.44 0.43 0.42 0.40 0.39 0.38 0.37 0.37 0.38 0.39 0.40 0.41 0.41 0.40 0.39 0.37 0.37 0.36 0.34 0.34 0.33 0.33 0.32 0.32 0.31 0.31 0.32 0.32 0.32
0.41 0.39 0.38 0.37 0.36 0.36 0.35 0.34 0.32 0.31 0.31 0.32 0.31 0.31 0.31 0.31 0.31 0.32 0.32 0.32 0.32 0.33 0.33 0.32 0.32 0.31 0.30 0.29 0.29 0.29 0.28 0.27 0.27 0.28 0.29 0.29 0.31 0.32 0.33 0.34 0.35 0.36 0.37 0.37 0.37 0.37 0.37 0.38 0.38 0.38 0.38 0.39 0.39 0.39 0.38 0.37 0.37 0.37 0.37 0.37 0.38 0.38 0.39 0.41 0.41 0.42 0.42 0.42 0.41 0.40 0.39 0.37 0.35 0.35 0.34 0.33 0.32 0.30 0.31 0.30 0.30 0.30 0.30 0.30 0.29
0.41 0.40 0.39 0.38 0.37 0.36 0.34 0.34 0.32 0.31 0.30 0.29 0.29 0.30 0.30 0.30 0.31 0.32 0.32 0.32 0.32 0.32 0.33 0.33 0.32 0.31 0.30 0.30 0.30 0.29 0.27 0.27 0.28 0.29 0.29 0.29 0.29 0.31 0.32 0.32 0.33 0.34 0.35 0.35 0.36 0.37 0.37 0.38 0.38 0.38 0.38 0.39 0.40 0.40 0.40 0.40 0.40 0.40 0.40 0.40 0.41 0.41 0.41 0.41 0.41 0.41 0.41 0.40 0.41 0.40 0.38 0.35 0.34 0.32 0.32 0.31 0.30 0.30 0.29 0.27 0.28 0.28 0.28 0.28 0.27
Wind_Speed
16 17 18 19 21 22 22 21 19 18 17 17 17 16 15 14 13 13 13 12 11 11 10 9 9 9 9 9 9 9 9 9 9 9 8 8 7 7 7 7 6 6 6 7 8 8 8 8 9 9 9 9 9 9 9 9 8 8 7 7 7 7 7 6 6 6 7 7 7 8 8 9 9 9 9 8 9 9 9 9 9 10 10 10 11
17 17 18 20 21 22 21 20 20 19 18 18 17 16 15 14 14 13 13 12 12 11 10 9 9 9 9 9 9 9 9 9 9 9 9 8 8 7 7 7 7 7 6 7 8 8 8 8 9 9 9 9 9 9 9 9 9 9 8 8 8 8 8 8 7 7 8 8 9 9 10 10 10 10 11 11 11 11 11 11 11 11 11 11 12
17 17 18 19 21 21 20 20 20 20 19 18 18 17 16 15 14 14 13 13 12 11 10 10 9 9 9 9 8 9 9 10 10 10 9 9 8 8 8 8 8 8 7 7 8 8 8 9 9 9 9 9 9 9 9 9 9 9 9 9 9 9 9 9 9 9 9 9 10 10 11 12 12 12 12 12 13 13 13 13 13 13 13 13 13
18 18 18 19 20 20 20 20 20 20 20 19 18 17 16 15 14 14 14 13 13 12 11 10 10 9 9 9 8 8 9 10 10 10 10 9 8 8 8 8 8 8 8 8 8 8 9 9 9 10 9 9 9 9 9 9 10 10 10 10 10 10 10 11 11 11 11 11 12 12 12 13 13 13 14 14 14 14 14 14 14 14 14 14 14
18 18 18 19 19 19 19 20 20 20 20 19 19 18 17 16 15 14 14 14 14 13 12 11 11 10 10 9 9 9 9 10 11 11 11 10 9 8 8 8 8 8 8 8 8 8 9 9 10 10 10 10 10 10 10 10 10 10 11 11 11 11 11 11 12 13 13 13 13 13 13 14 15 15 15 15 15 16 16 16 16 16 16 16 15
18 19 19 19 19 18 19 19 19 20 19 19 18 18 17 16 16 15 14 14 14 13 12 12 11 11 10 10 10 10 10 10 11 11 11 10 10 9 9 9 9 9 9 9 9 9 10 10 10 11 11 11 11 11 11 11 11 11 11 12 11 11 12 12 12 13 14 14 14 14 15 15 16 16 17 17 17 17 17 17 17 17 17 17 17
19 19 18 19 19 19 20 20 19 19 18 18 18 17 17 16 16 15 15 14 14 14 13 13 12 12 11 11 11 10 10 11 11 11 12 11 11 10 10 10 10 10 10 10 10 10 11 11 12 12 12 12 12 13 13 13 12 12 12 12 12 12 12 13 13 14 14 15 16 16 16 17 17 17 18 18 19 19 19 19 19 19 19 19 19
19 18 18 19 19 19 20 20 20 18 17 18 18 17 16 16 15 15 15 15 14 14 14 14 13 13 12 12 11 11 11 11 12 12 12 12 12 11 11 11 11 10 10 10 11 11 11 12 13 13 13 13 13 13 14 13 13 13 13 13 13 13 14 14 14 15 15 16 17 18 18 18 18 19 19 19 20 21 21 20 20 20 20 21 21
19 19 18 18 19 19 20 20 20 18 17 17 17 17 16 16 15 15 15 15 15 14 14 14 14 13 13 12 12 12 12 12 12 12 13 13 13 12 12 12 12 12 12 12 12 12 13 13 13 13 13 13 14 14 14 14 14 14 14 14 15 15 15 16 16 17 17 18 18 19 19 20 20 20 20 21 21 22 22 22 22 22 22 22 23
18 18 18 18 19 20 20 20 20 19 18 18 17 17 16 16 16 15 15 15 16 15 15 14 14 14 14 14 13 13 13 13 14 14 14 14 14 13 13 14 14 13 13 13 13 13 14 14 13 13 13 14 14 14 15 15 16 16 16 16 17 17 17 17 18 18 19 20 20 20 21 21 21 22 22 23 23 24 24 24 24 24 24 24 25
16 16 17 17 18 19 19 20 20 20 19 18 18 17 17 16 16 15 15 15 16 16 15 15 15 15 15 15 15 15 15 15 15 15 15 15 15 14 14 15 15 15 14 14 14 14 14 14 13 13 14 14 15 15 16 16 17 18 18 19 19 19 19 19 20 20 20 21 21 21 22 22 23 23 24 24 25 25 25 25 26 26 26 26 27
15 14 15 16 17 18 18 19 19 19 19 19 18 18 17 17 17 17 16 16 16 16 16 16 16 16 17 17 17 16 17 17 17 17 16 16 16 15 15 15 15 15 15 15 14 14 14 14 14 15 15 15 16 16 17 18 19 19 20 20 21 21 21 22 22 22 22 23 23 23 23 23 24 24 25 25 25 26 27 28 28 28 29 30 30
14 14 14 15 16 17 17 17 18 18 19 19 19 18 18 18 19 19 19 18 18 18 18 18 18 18 18 18 18 18 18 18 18 18 17 17 17 16 16 16 16 16 16 16 16 16 16 16 16 17 17 17 18 19 19 20 21 21 22 22 23 24 24 24 24 24 25 25 25 25 25 25 25 26 26 26 27 27 29 30 30 31 32 32 32
15 14 14 15 15 16 16 16 17 17 18 18 19 19 20 20 20 21 21 20 20 19 19 20 19 19 20 20 20 20 19 19 19 19 18 18 17 17 17 17 18 18 19 19 18 18 18 18 19 19 19 20 21 21 22 22 23 23 24 25 25 26 26 26 26 27 27 27 27 27 27 27 27 28 28 29 29 30 31 31 32 32 33 33 33
13 13 13 13 14 15 15 15 15 16 16 17 17 17 17 17 18 18 18 18 18 18 18 18 18 19 20 21 21 20 20 19 19 19 18 18 18 18 18 18 18 19 20 20 21 21 21 21 22 22 22 23 23 23 24 25 25 26 26 27 27 28 28 28 28 29 29 29 29 29 29 29 29 29 30 31 31 32 33 33 33 33 33 33 33
12 12 11 11 11 12 12 12 13 13 13 13 14 14 13 14 14 15 15 15 15 16 16 16 17 18 18 18 18 18 18 18 18 18 18 18 19 19 18 19 19 20 20 21 22 22 22 23 23 24 25 25 25 25 26 27 27 28 29 29 29 30 30 30 30 30 31 31 31 32 32 32 32 33 33 33 33 34 34 34 34 33 33 34 34
10 11 10 10 10 10 11 11 11 12 12 11 12 12 12 12 12 12 12 13 13 13 13 13 14 15 15 16 16 17 17 17 17 17 18 19 19 19 19 20 20 21 22 22 23 23 24 24 25 26 26 27 26 27 28 28 29 30 30 30 31 31 31 31 31 32 33 33 34 35 35 36 36 36 36 36 36 36 35 35 35 34 35 35 34
8 9 10 9 9 10 10 11 11 11 11 11 10 11 11 11 11 10 10 11 11 11 11 11 11 12 13 15 16 16 16 17 17 17 18 19 20 20 21 21 22 22 23 23 24 25 25 26 26 27 28 28 28 28 29 30 30 31 32 32 32 32 32 32 32 33 34 35 36 37 37 38 38 38 38 38 38 37 37 37 36 35 36 36 36
8 8 9 9 9 9 9 9 10 10 10 10 10 10 11 11 11 11 10 11 11 11 12 12 12 13 14 15 16 17 17 18 18 19 19 20 22 22 22 23 23 24 24 25 25 26 27 27 27 28 29 29 29 30 31 31 32 32 33 33 34 34 34 34 35 35 35 36 37 38 38 39 39 39 38 38 39 39 38 38 37 37 37 37 37
8 9 9 9 9 9 9 9 9 9 10 10 10 10 11 11 11 11 11 11 12 12 13 14 14 14 15 16 17 18 19 19 20 21 22 22 23 24 24 24 25 25 26 26 27 27 28 28 29 29 29 30 31 32 32 33 34 34 35 35 36 36 36 36 37 37 37 37 38 39 39 40 40 40 39 39 39 39 39 38 38 38 38 37 36
8 8 9 9 9 9 9 8 9 9 10 11 11 11 11 11 12 12 12 13 13 13 14 15 15 15 16 17 17 18 19 20 21 22 22 23 24 25 25 26 26 27 27 27 28 28 29 30 30 31 32 33 34 34 35 36 36 37 37 38 38 38 39 39 39 39 40 40 40 40 41 41 41 41 40 40 39 39 39 38 38 38 37 36 35
8 8 9 9 9 9 9 9 10 10 11 11 12 12 12 12 13 13 13 14 14 15 15 16 16 17 18 18 19 20 21 22 22 23 24 25 26 26 27 27 28 29 30 30 31 32 32 33 33 34 35 36 37 38 38 39 39 40 41 41 42 42 42 42 42 42 42 42 42 42 42 42 42 41 40 40 40 39 38 38 38 37 36 36 35
9 9 10 10 10 10 10 10 11 12 12 12 13 13 14 14 14 15 15 16 16 17 17 18 19 19 20 21 21 22 23 24 25 25 26 27 28 28 29 30 31 32 33 34 34 35 36 36 37 37 38 39 40 41 41 42 42 43 43 44 45 45 44 45 45 45 44 43 43 44 44 43 43 42 41 41 40 39 39 38 37 37 36 35 35
10 10 11 11 11 11 12 12 12 13 13 14 14 15 15 16 16 16 17 17 18 18 19 20 21 22 22 23 23 24 25 26 26 27 28 29 30 30 31 32 33 34 35 35 36 37 37 38 39 40 40 41 42 42 43 44 44 44 45 45 46 46 46 46 47 47 46 46 46 46 45 45 44 43 42 41 40 39 38 38 37 37 36 36 35
10 11 12 12 13 13 13 13 13 14 15 15 15 16 16 17 17 17 18 18 19 20 20 21 22 22 23 24 24 25 26 27 27 28 29 30 31 32 33 34 34 35 36 37 37 38 39 40 40 41 41 42 42 43 43 44 44 45 45 46 46 46 47 47 47 48 48 47 47 46 45 44 44 43 42 41 40 40 39 38 37 37 36 36 35
11 11 12 13 14 14 14 14 14 14 15 15 16 16 17 17 17 18 18 19 20 21 21 22 23 23 24 25 25 26 27 28 28 29 30 31 32 33 34 34 35 36 37 37 38 39 40 40 41 41 42 42 42 43 43 44 44 45 45 45 46 46 46 46 47 47 47 46 46 45 44 43 43 42 42 41 41 40 39 38 38 37 37 36 35
12 12 13 14 14 14 14 15 15 15 15 16 16 17 17 18 18 19 20 20 21 22 23 23 24 25 25 26 26 27 27 28 29 29 30 31 32 32 33 34 34 35 35 36 37 38 39 40 41 41 41 42 42 43 43 43 43 43 43 43 44 44 45 45 45 46 45 45 45 44 43 43 43 43 42 42 41 41 40 39 38 37 37 36 35
13 13 14 14 15 15 15 15 16 16 16 17 17 18 19 20 20 20 21 22 23 23 23 24 24 25 26 26 27 27 28 28 29 30 30 31 31 32 32 33 34 34 35 36 37 38 39 40 40 40 40 40 40 40 41 41 41 41 42 42 42 43 43 44 44 44 44 43 43 42 42 42 42 42 42 41 41 40 39 38 37 37 37 36 36
14 14 14 15 15 15 16 16 16 17 17 18 18 19 20 20 20 21 21 22 23 23 23 24 24 25 25 26 27 27 28 28 29 30 31 31 32 32 33 33 34 35 35 36 37 38 38 38 38 38 39 39 39 39 40 40 40 41 41 42 42 42 42 42 43 43 42 42 41 41 40 41 41 40 40 40 39 38 38 37 36 35 35 35 34
15 15 16 16 16 16 17 17 18 18 19 19 19 19 19 19 20 20 21 21 22 22 23 24 24 25 26 26 27 27 28 29 30 30 31 32 32 33 34 34 35 35 36 37 37 37 37 37 37 38 38 38 39 39 39 40 40 41 41 42 42 42 42 42 42 41 41 40 40 39 39 39 38 38 37 36 35 35 34 33 33 32 32 31 31
16 17 17 17 17 18 18 18 19 19 19 19 20 20 20 20 20 20 21 21 22 22 23 23 24 25 26 26 27 28 29 30 30 31 32 32 33 33 34 34 35 35 36 36 36 36 36 36 36 36 37 37 37 38 38 39 39 40 40 41 41 41 41 42 41 40 40 39 38 37 36 36 35 33 32 31 30 29 29 29 29 28 28 27 26
17 18 18 18 18 19 19 19 20 20 20 20 21 21 21 21 21 21 21 22 22 22 23 24 24 25 26 26 27 28 28 29 30 31 31 32 32 33 33 34 34 34 34 34 34 34 34 34 35 35 35 36 36 37 37 37 38 38 38 38 38 38 38 39 38 38 37 36 35 34 33 32 30 28 27 27 27 26 26 26 25 24 24 23 22
18 19 19 19 19 20 20 20 21 21 21 22 22 22 22 22 23 23 23 23 23 23 23 24 24 25 25 26 26 27 27 28 28 29 29 30 30 31 31 32 32 33 32 32 33 33 33 33 33 34 34 35 35 35 35 35 36 35 35 35 35 35 34 34 35 35 34 33 32 31 29 28 27 25 24 25 24 23 21 21 20 20 20 21 21
19 19 20 20 20 20 21 21 22 22 22 22 22 22 23 23 23 23 23 23 23 23 23 23 23 24 24 25 25 25 26 26 27 27 28 28 29 29 30 30 30 30 31 31 31 31 31 32 32 32 32 32 32 33 33 33 33 33 33 33 33 33 32 32 32 32 31 30 29 28 26 25 25 24 23 22 20 19 18 17 18 18 19 20 21
20 20 20 20 21 21 21 21 22 22 22 22 22 22 22 22 22 22 22 22 22 22 22 23 23 23 23 24 24 24 25 25 25 26 26 27 27 28 28 27 27 28 28 28 28 29 29 29 29 30 30 30 30 31 31 31 32 32 32 32 31 31 31 31 30 29 28 27 25 25 24 24 23 22 21 20 19 18 18 19 20 20 21 22 23
20 20 21 21 21 21 21 21 21 21 21 21 21 21 21 21 21 21 21 21 21 21 21 22 22 22 22 22 22 22 23 23 24 24 24 25 25 25 25 25 25 25 25 26 26 26 26 27 27 27 28 28 29 29 29 30 30 30 30 30 30 29 29 28 27 25 24 23 22 22 21 21 21 20 19 19 18 18 19 19 20 20 20 21 21
20 20 20 20 20 20 20 20 19 19 20 20 20 20 20 20 20 20 20 20 20 20 20 21 21 21 20 20 20 21 21 21 22 22 22 22 23 22 22 22 23 23 24 24 24 24 25 25 26 26 27 27 28 28 28 28 28 29 29 29 27 26 25 24 22 22 21 20 20 19 18 18 18 18 18 18 18 17 17 17 17 17 17 16 17
19 19 19 19 19 19 19 19 19 19 19 19 19 19 19 18 18 18 18 18 19 19 19 19 19 19 18 19 19 19 19 19 19 20 20 20 20 20 20 21 21 22 22 23 23 24 24 25 25 26 27 27 27 27 26 26 27 27 27 26 24 22 20 18 17 17 17 16 16 15 15 15 16 16 16 16 16 16 16 16 15 14 13 14 14
18 18 18 19 19 19 19 19 19 19 19 18 18 18 17 17 17 17 17 17 17 17 17 17 17 17 17 18 18 17 17 17 17 17 18 18 18 19 19 20 21 21 22 23 23 23 24 24 25 25 26 26 26 25 24 24 24 23 22 21 19 17 15 13 12 13 13 12 12 13 12 12 13 13 13 14 14 15 14 14 13 13 12 12 13
18 18 18 18 18 18 18 18 18 18 18 17 17 17 16 16 16 16 16 16 16 15 15 15 15 15 15 16 16 16 16 16 16 16 16 17 17 18 19 19 20 21 22 22 23 23 23 23 24 24 24 24 23 22 22 21 20 18 17 15 12 11 10 10 10 10 10 11 11 12 12 12 12 12 13 13 13 13 13 13 12 12 12 12 12
18 18 18 18 18 17 18 18 18 17 17 17 16 16 16 15 15 15 15 15 14 14 14 14 14 14 14 14 15 15 14 15 15 15 15 16 17 18 18 19 19 20 21 21 22 22 22 22 22 22 22 21 20 19 18 16 14 13 11 8 6 6 7 7 7 8 9 9 9 10 10 10 11 11 12 12 12 12 12 13 12 12 12 12 12
18 18 17 17 17 17 17 17 17 17 16 16 16 15 15 15 14 14 14 13 13 13 12 12 12 12 12 13 13 13 13 14 14 15 15 16 17 17 18 18 19 19 20 20 20 20 20 20 19 19 18 17 16 15 13 11 10 8 5 4 4 5 5 5 5 6 7 7 8 9 10 10 10 10 10 11 11 12 12 12 12 12 12 12 11
17 17 17 16 16 16 17 17 16 16 16 15 15 14 14 14 13 13 12 12 12 11 11 11 11 11 11 11 12 12 13 13 14 15 15 16 16 17 17 18 18 19 19 19 19 18 17 17 16 15 14 13 12 10 8 7 6 4 3 2 3 4 4 4 4 4 5 7 8 9 9 10 10 11 11 11 11 12 12 12 12 11 11 11 10
17 17 16 16 15 16 16 16 16 15 15 14 14 13 13 13 12 12 11 11 10 10 9 9 9 10 10 11 11 12 12 13 14 15 15 16 16 17 18 18 19 19 18 18 17 16 15 14 13 12 11 10 9 7 6 5 3 2 2 2 2 3 3 3 4 4 5 6 7 7 8 10 11 11 11 11 11 11 10 10 10 10 9 9 9
17 16 16 15 15 15 15 14 14 14 14 13 13 12 12 12 11 11 10 9 8 8 8 8 8 9 9 10 11 11 12 13 13 14 15 16 16 17 17 18 18 17 16 16 15 14 12 11 10 10 9 8 7 6 4 3 2 1 1 1 2 2 2 3 4 5 5 6 6 7 7 8 9 9 9 9 9 9 8 8 8 8 8 8 8
16 16 15 14 14 14 13 12 12 12 13 12 12 12 11 11 10 9 8 7 7 7 7 7 8 8 9 9 10 11 11 12 13 14 14 15 16 16 16 16 15 14 14 13 12 12 10 9 8 8 8 6 5 4 3 2 2 1 1 1 1 2 2 3 3 4 4 5 5 6 6 6 6 7 7 7 7 7 7 7 7 8 8 7 7
16 15 14 14 13 13 12 11 11 11 11 11 11 11 10 9 9 8 7 7 7 6 7 7 7 8 8 9 10 10 11 12 13 13 14 15 15 15 14 13 13 12 12 12 11 10 9 7 7 7 6 5 4 4 3 2 1 2 2 2 3 3 3 4 4 4 5 6 6 6 6 5 5 5 6 6 6 6 6 6 7 7 7 7 7
16 15 14 13 13 12 12 11 11 10 10 10 10 10 10 9 8 8 7 7 6 6 6 7 7 7 8 9 9 10 11 11 12 13 14 14 14 13 12 12 12 11 11 11 10 9 8 7 6 6 6 5 4 3 2 2 2 2 3 4 4 5 5 5 5 5 6 5 5 5 5 5 5 5 6 6 6 6 7 7 7 6 6 7 8
16 15 15 14 13 13 12 12 11 11 10 10 10 10 10 9 8 8 7 7 6 6 6 6 7 7 8 8 9 10 10 11 12 13 13 13 12 12 11 11 11 11 10 10 10 8 7 6 5 5 5 5 4 3 2 2 2 3 3 4 5 5 5 5 4 4 4 4 4 4 4 5 5 6 6 7 7 7 7 7 7 7 7 7 8
16 16 15 15 14 13 12 12 12 11 11 11 11 10 10 10 9 8 8 7 7 6 6 6 7 7 7 8 9 9 10 11 12 12 12 12 11 11 10 10 10 10 9 9 9 8 6 5 5 5 5 5 4 3 3 2 3 3 3 3 3 3 3 3 3 3 3 4 4 4 4 5 5 6 7 7 7 7 7 8 8 8 8 9 9
16 16 16 15 15 14 13 12 12 12 12 12 11 11 11 10 10 9 8 8 7 7 7 7 7 7 7 8 8 9 10 10 11 11 11 11 10 10 10 10 10 9 9 8 8 7 6 5 5 5 5 4 4 3 3 3 3 3 3 3 3 3 3 4 4 4 4 4 5 5 5 6 6 6 6 7 7 7 8 8 9 9 10 10 10
Wind_Direction
211 213 211 206 204 203 203 205 208 208 207 207 208 210 212 214 215 217 217 217 217 218 220 222 223 222 221 223 224 224 222 221 220 218 212 208 205 202 200 200 197 193 191 190 190 192 194 197 200 201 201 203 204 208 212 216 224 233 236 240 242 244 249 248 239 237 245 248 247 247 246 247 250 252 256 262 265 268 272 273 273 275 278 280 282
211 212 210 206 204 203 203 207 211 211 208 207 210 212 213 215 217 218 216 217 219 221 224 226 226 224 223 224 225 224 221 218 217 216 213 210 208 208 208 206 201 198 196 195 195 197 197 198 200 202 206 209 211 216 220 223 230 236 240 245 247 249 253 255 250 244 246 251 252 252 253 254 256 256 258 264 266 267 270 272 274 275 276 277 280
209 209 208 204 202 201 204 208 210 209 207 208 211 213 213 215 217 217 216 217 220 223 225 227 227 227 226 225 223 222 219 216 216 215 212 211 212 213 213 210 207 206 205 204 203 204 204 204 207 211 213 214 218 225 228 231 237 242 246 251 253 255 257 258 259 255 252 254 254 256 258 260 261 261 261 265 267 267 268 271 273 274 275 275 277
207 208 207 203 201 202 205 207 207 207 207 209 211 212 212 213 215 216 217 219 222 223 225 227 228 228 226 225 223 222 218 215 215 215 212 211 212 213 211 208 208 210 211 211 210 211 212 212 215 218 220 222 226 232 235 237 243 247 250 254 256 259 261 260 262 261 259 257 257 259 261 262 264 265 264 264 266 267 268 270 272 273 274 275 275
207 208 206 203 203 204 206 206 206 206 208 210 211 211 212 213 215 218 219 220 222 223 224 227 230 229 227 225 225 225 221 217 216 215 212 211 212 213 212 210 210 212 214 215 215 216 219 220 222 224 227 231 234 237 239 242 247 250 253 256 256 259 263 263 262 262 262 261 261 262 264 265 267 267 266 265 266 267 268 270 271 272 273 273 274
207 208 206 205 205 206 207 207 206 207 210 212 212 211 213 214 217 221 223 223 223 224 225 227 229 230 229 229 228 226 223 218 216 214 211 210 212 214 215 216 216 217 218 220 223 225 227 228 230 232 234 237 239 241 243 246 251 253 255 258 260 261 263 265 264 263 263 264 264 265 266 267 268 268 267 266 267 268 269 270 271 272 272 272 273
208 208 208 208 208 208 208 208 208 209 212 213 212 212 214 217 220 223 225 225 225 225 226 226 229 232 233 231 229 226 222 217 214 213 214 214 216 217 218 219 221 222 225 228 231 234 236 237 238 240 241 243 244 246 248 250 253 254 254 257 260 262 263 265 265 264 264 266 266 266 268 269 268 269 269 268 268 270 270 271 271 271 271 272 274
208 209 209 209 208 208 207 207 208 211 212 212 212 214 217 219 222 224 224 224 225 227 227 227 229 233 233 231 229 225 222 219 217 218 220 221 221 222 223 224 227 229 231 235 238 241 243 244 244 246 246 247 249 250 251 252 253 254 256 257 260 263 265 266 266 266 267 267 267 268 269 270 269 270 270 269 269 270 270 270 271 271 271 272 274
207 208 208 208 207 206 207 208 210 213 213 211 212 216 219 221 223 225 225 225 226 227 230 231 233 234 232 230 228 226 225 224 224 225 226 226 226 228 230 232 234 237 239 242 244 246 247 248 248 249 250 251 253 255 255 255 256 257 259 261 263 266 268 269 269 269 269 269 269 269 270 271 271 271 270 270 270 271 270 270 271 271 271 272 273
207 206 206 207 207 207 208 211 212 213 213 213 215 218 222 223 224 226 227 227 226 228 232 236 237 236 234 231 228 228 228 230 231 232 232 231 232 233 235 237 239 242 244 246 247 248 249 249 249 250 251 252 254 256 257 258 259 260 262 264 266 268 269 270 271 271 272 272 271 271 272 272 273 273 272 272 272 272 271 270 271 271 272 272 273
205 204 204 206 207 208 210 212 212 213 214 217 219 221 223 224 225 228 230 229 229 231 234 238 239 237 235 233 231 231 231 233 236 237 237 236 236 237 239 242 244 245 246 246 247 248 248 248 249 250 252 254 255 257 258 260 261 263 265 266 268 268 269 270 272 273 273 273 273 273 274 274 275 275 276 275 274 273 272 271 271 271 271 273 274
205 203 202 204 207 209 210 212 213 215 216 220 223 225 226 227 229 231 231 230 232 235 237 239 239 237 235 234 234 234 234 237 239 239 239 240 240 239 240 242 244 245 245 245 246 248 249 249 251 254 255 257 258 259 261 262 264 265 267 268 269 269 270 271 272 273 273 274 274 275 275 276 277 277 277 277 276 275 274 273 273 272 272 273 274
208 207 205 206 208 210 211 212 214 217 220 223 227 229 230 232 235 236 235 235 238 240 241 241 238 236 235 234 235 236 238 240 241 240 240 241 240 240 240 242 244 245 246 247 249 252 254 255 257 259 260 260 261 262 263 264 265 266 268 268 269 270 271 271 272 273 273 274 274 275 276 277 278 278 278 278 277 277 276 276 275 275 275 275 275
209 210 211 211 211 212 213 214 218 222 226 229 231 233 235 238 240 241 240 240 241 242 243 242 239 237 235 235 236 237 238 240 240 240 240 240 241 243 243 244 246 247 248 250 252 255 258 259 261 262 263 265 265 266 266 267 267 268 268 269 269 270 270 271 272 272 272 272 273 274 275 276 277 278 279 279 278 278 279 278 278 277 276 276 276
204 205 206 208 209 211 214 217 220 223 227 230 229 230 233 236 237 237 236 237 238 239 241 241 238 236 236 236 238 237 236 238 239 238 238 240 244 246 247 249 251 252 252 253 255 258 261 262 263 264 266 267 268 268 269 269 269 269 269 269 270 270 270 271 271 271 271 271 272 273 274 276 277 278 279 279 279 279 280 280 279 279 278 277 278
192 195 198 201 206 210 213 215 216 218 220 221 220 221 224 228 230 232 232 232 233 235 236 237 237 237 236 235 234 233 233 236 238 239 241 245 248 250 252 254 256 256 257 258 259 262 263 264 266 267 269 270 269 269 270 270 270 269 270 270 270 270 270 270 270 270 270 271 272 273 275 276 277 278 279 280 279 280 280 280 280 279 278 278 278
184 189 192 195 198 203 206 206 207 210 211 212 214 218 223 226 228 230 230 229 228 228 229 231 233 235 233 230 229 230 232 237 240 242 246 249 251 253 255 257 258 260 261 262 263 264 265 267 269 270 271 272 271 270 271 271 270 270 270 270 270 270 270 270 270 270 270 271 273 274 275 276 277 278 279 279 279 279 279 279 279 278 277 277 277
186 188 189 191 193 196 199 201 204 208 211 214 218 222 224 225 226 227 226 225 223 223 225 228 232 233 233 233 233 233 235 239 243 246 249 253 255 256 258 260 261 262 263 263 264 266 267 268 269 269 270 272 272 272 271 271 271 271 271 271 271 271 271 271 271 271 272 272 272 273 275 276 277 278 278 278 278 278 277 278 278 277 277 277 277
194 193 194 198 200 201 202 205 208 211 214 218 222 224 225 226 229 232 232 229 227 228 231 234 236 238 240 240 242 241 241 243 247 249 253 257 259 259 260 262 264 264 265 265 266 267 268 269 269 270 270 271 272 273 273 272 272 272 272 272 272 272 272 272 272 273 273 273 273 274 275 276 277 278 278 278 278 277 276 276 276 276 277 276 276
201 201 202 205 208 210 213 216 216 217 218 221 224 226 229 232 235 238 238 236 235 236 238 238 240 242 244 245 246 247 247 247 250 253 256 260 262 263 263 264 265 266 267 267 267 268 269 270 270 271 271 272 272 272 272 272 271 271 272 272 272 272 273 273 273 273 274 274 274 275 276 276 277 278 279 278 277 276 275 275 275 276 276 275 275
207 208 208 209 213 216 220 224 226 226 226 228 229 231 234 238 240 242 243 243 243 243 243 243 244 246 248 248 249 249 250 251 254 257 260 263 265 266 265 265 266 266 267 268 268 269 270 271 272 272 272 273 273 272 272 272 271 271 271 271 272 273 273 273 273 273 274 275 275 275 276 277 277 278 278 278 277 276 275 275 275 275 274 275 275
212 213 214 216 219 222 225 229 232 234 234 235 236 238 240 242 245 246 247 247 248 248 248 249 249 250 252 253 253 254 255 256 259 262 264 265 267 268 267 266 267 268 269 270 270 271 272 272 273 274 274 274 274 274 273 273 272 272 272 272 273 273 273 273 274 274 275 275 275 275 276 277 277 277 277 276 276 276 275 275 274 274 274 275 276
219 221 221 222 225 229 233 236 238 240 242 243 243 245 246 247 248 249 250 250 250 250 251 252 253 253 255 256 257 258 259 261 263 265 266 267 268 269 269 269 270 271 271 272 272 273 273 273 274 275 276 275 274 274 274 273 273 273 273 273 273 273 273 273 274 274 275 275 275 275 275 276 276 276 275 275 275 274 274 273 272 273 274 276 277
228 229 229 230 233 237 240 243 245 246 248 249 249 249 250 251 252 253 254 254 254 255 256 257 258 259 260 261 262 263 264 265 266 268 269 270 270 271 271 272 273 273 273 274 274 274 275 275 276 276 276 276 275 275 274 274 274 274 274 274 274 274 274 274 274 274 274 274 274 274 274 274 275 275 274 274 273 272 271 271 271 272 274 275 275
234 236 237 238 241 244 246 248 248 249 250 251 253 254 255 256 256 256 257 257 257 258 260 262 263 264 265 266 267 268 269 270 271 271 272 273 273 274 275 275 276 276 276 276 276 276 277 277 277 277 277 276 276 276 275 275 275 274 274 274 274 274 274 273 273 273 273 273 273 274 273 273 273 273 272 271 270 270 269 270 271 273 273 274 273
241 243 245 247 249 250 251 251 251 252 253 254 256 258 259 259 259 259 259 259 260 261 263 264 266 267 268 269 270 271 272 273 274 274 275 276 276 276 277 277 276 277 277 277 277 277 277 277 278 278 277 277 276 276 276 276 275 275 275 275 274 274 274 273 273 272 272 273 273 273 272 272 272 271 270 269 269 269 269 270 272 272 272 272 272
247 250 252 254 255 256 256 255 255 255 256 257 259 260 261 262 262 263 264 265 265 266 267 268 269 270 271 271 272 273 274 275 276 277 279 280 279 279 279 278 278 278 278 278 279 279 279 279 279 278 278 278 277 277 277 277 277 276 276 276 276 275 275 274 274 273 273 273 273 272 271 271 271 270 269 268 268 268 269 270 270 271 271 271 271
254 255 256 257 257 257 257 257 257 257 258 260 261 264 266 267 268 270 271 272 272 272 272 272 273 273 274 274 275 275 276 277 278 280 281 282 282 281 281 281 280 280 280 280 280 281 280 280 279 279 279 278 278 278 278 278 278 277 277 277 277 276 275 275 274 274 273 273 273 271 270 270 271 270 268 268 268 268 268 269 269 270 270 270 271
255 255 255 256 257 257 257 258 260 261 263 264 266 269 273 274 274 275 275 276 276 276 276 276 276 277 277 277 277 277 277 278 280 282 282 283 282 282 282 282 282 282 282 283 283 283 282 282 281 281 280 280 279 279 279 278 278 278 278 278 277 277 276 276 275 274 273 273 272 271 269 270 271 269 267 267 267 267 268 268 268 269 269 269 269
256 256 257 258 259 260 261 263 265 267 269 269 270 272 275 277 278 278 278 278 278 277 277 277 278 279 278 278 279 279 279 280 282 283 283 284 284 284 284 284 284 284 284 285 285 284 284 283 283 282 281 281 280 280 280 280 279 279 279 279 278 278 277 277 276 275 274 273 272 271 270 270 270 268 267 266 266 267 267 267 267 268 268 268 268
258 259 261 262 263 264 265 267 268 270 271 272 272 272 273 276 278 279 279 280 280 281 281 281 281 281 281 281 281 280 280 282 283 284 285 285 285 285 285 285 285 285 285 285 285 285 285 284 284 283 283 282 282 282 282 281 281 281 280 280 279 279 278 278 277 276 274 273 272 271 270 269 268 267 266 265 264 265 266 266 266 265 265 266 265
260 261 262 264 265 267 268 270 271 271 272 272 273 273 272 274 276 278 279 280 280 281 282 282 283 284 283 283 283 282 283 284 285 285 286 286 286 286 286 286 285 285 285 286 286 286 286 285 285 285 285 284 284 284 283 283 283 282 282 281 280 280 279 278 277 276 274 272 271 269 267 265 263 262 262 262 263 264 264 263 262 261 262 263 264
262 263 264 265 266 267 268 270 271 272 272 273 273 274 274 274 275 276 277 278 279 280 281 282 283 283 284 284 285 285 285 286 286 287 287 288 288 288 288 287 287 286 286 286 287 287 287 287 287 287 287 286 286 285 285 284 284 284 283 283 282 282 281 279 278 276 273 270 268 265 262 260 259 258 259 261 262 260 258 256 256 257 259 261 264
265 265 266 266 267 268 269 270 271 272 273 274 274 275 276 276 276 276 276 277 278 279 281 282 284 285 286 287 287 287 287 288 288 289 290 290 291 291 291 290 290 289 288 288 288 288 289 289 289 289 289 288 288 287 286 286 286 285 285 284 284 283 282 280 278 276 271 267 263 259 256 255 255 255 256 256 253 249 248 251 254 257 260 262 265
266 266 267 267 267 268 269 271 272 273 273 274 275 275 276 277 277 278 278 279 279 280 281 283 285 287 288 289 289 289 290 290 291 291 292 293 294 294 294 294 293 293 291 290 290 290 290 290 290 291 290 290 290 289 288 288 287 287 286 285 284 282 281 280 278 274 268 263 259 255 253 253 252 251 250 248 246 247 251 256 260 263 265 267 267
267 267 267 268 268 269 270 272 273 273 273 274 276 276 277 278 278 279 280 280 281 282 283 283 284 286 287 289 289 290 290 292 293 293 294 295 296 296 296 296 296 296 295 294 294 293 293 293 293 292 292 292 292 291 290 289 289 288 287 286 284 281 280 279 276 269 263 260 257 253 249 247 246 245 245 246 248 252 257 261 265 267 268 268 268
267 267 267 267 268 268 269 271 274 274 274 275 276 276 277 278 278 279 280 280 280 282 283 284 285 286 287 289 291 291 290 291 292 293 294 295 297 298 298 298 299 299 298 298 297 297 296 296 295 295 294 294 294 293 292 292 291 290 289 286 283 280 278 277 272 263 257 256 253 247 243 242 242 243 245 247 250 255 259 262 265 267 268 267 267
267 268 268 267 267 268 269 271 273 275 275 274 275 275 276 277 278 279 280 280 281 282 283 285 287 288 290 292 293 293 292 292 293 294 295 298 300 300 300 300 301 301 301 300 300 300 299 299 299 298 297 297 296 296 295 295 294 293 291 286 282 278 275 271 264 255 249 247 243 237 235 237 240 243 246 248 250 252 255 258 261 263 265 266 267
267 269 269 267 267 268 269 270 272 274 274 273 273 274 275 276 277 278 279 280 281 282 283 285 287 290 292 293 293 294 295 296 297 298 299 301 302 302 302 303 303 303 302 302 302 302 302 302 302 301 300 299 299 298 298 297 296 295 292 288 282 274 264 256 250 243 236 231 227 226 229 234 239 244 248 249 249 250 251 253 255 258 262 265 267
267 268 268 267 266 268 269 270 271 272 272 271 271 272 273 275 276 277 279 280 281 282 283 285 287 290 292 293 293 295 297 298 300 301 303 304 305 306 307 307 307 306 305 305 304 304 304 304 304 304 303 302 301 300 300 298 297 297 294 288 278 263 247 240 239 232 223 219 221 226 232 238 244 247 249 250 249 249 249 251 254 259 263 266 268
267 268 268 267 267 268 269 269 271 271 270 269 270 270 272 273 275 276 277 278 279 280 281 283 286 290 292 293 294 296 298 299 301 303 306 308 309 310 311 311 311 310 309 308 307 306 306 306 306 307 307 306 304 302 301 300 300 299 293 279 257 236 226 224 223 219 214 215 220 227 234 242 247 249 250 250 250 249 249 251 255 260 263 267 269
267 267 267 266 267 268 268 269 269 268 267 267 268 268 270 271 273 274 275 275 276 277 278 280 284 289 293 295 297 298 300 301 304 307 309 310 312 313 314 314 314 314 313 312 310 309 308 308 310 312 312 311 309 308 306 304 301 295 281 251 226 218 214 211 212 214 217 222 230 236 242 247 250 251 253 254 255 253 252 253 255 258 261 264 266
265 265 264 265 267 268 268 268 268 266 265 265 266 266 266 268 269 269 271 272 273 275 277 279 282 287 293 298 302 303 304 306 308 311 311 312 313 315 315 316 316 316 316 316 315 313 312 312 314 317 318 319 320 320 317 315 309 291 256 225 212 208 206 208 215 223 229 235 241 245 249 250 251 251 253 256 258 256 254 253 254 257 260 263 263
263 263 263 264 267 268 268 269 267 264 262 262 262 261 262 263 264 265 266 268 269 271 274 278 283 289 294 300 304 307 308 310 312 314 314 314 315 315 316 317 317 318 318 318 318 318 317 317 319 322 323 325 328 327 325 326 324 291 233 211 199 197 204 219 229 235 241 245 246 249 253 254 255 255 255 256 256 254 252 252 255 258 260 261 259
260 261 262 264 266 267 268 268 265 260 257 257 257 257 257 258 259 260 260 261 263 267 272 279 286 292 298 302 306 310 312 314 316 317 317 316 317 317 318 319 319 320 321 321 322 323 322 323 327 331 330 329 328 326 323 322 320 280 186 178 189 201 220 236 241 244 248 250 253 258 262 263 262 259 255 253 252 250 249 251 253 255 256 255 252
257 259 260 262 263 264 265 265 262 257 254 253 252 251 251 251 251 251 251 252 257 264 273 282 289 295 301 305 309 312 315 317 318 320 320 319 319 319 320 321 323 324 326 327 328 328 328 331 336 340 339 335 332 331 328 315 286 248 212 204 223 241 255 257 251 249 253 260 266 268 267 265 261 254 246 244 246 246 246 247 249 250 248 246 246
253 254 256 257 257 258 259 260 257 253 251 249 246 244 242 240 239 240 243 248 255 264 274 283 291 297 303 307 311 315 318 320 321 322 323 324 324 323 323 324 326 327 329 330 330 329 331 336 342 344 344 342 341 342 343 333 293 263 249 250 259 266 267 263 257 258 265 272 273 267 260 256 253 247 242 244 247 249 250 251 251 249 246 245 249
249 250 251 252 252 252 253 254 253 250 246 243 239 236 233 231 231 234 240 247 255 264 274 283 291 298 304 309 313 317 319 322 323 325 327 328 329 328 328 329 329 328 330 332 331 329 329 333 338 339 339 340 341 341 343 336 312 289 273 268 270 271 269 267 265 265 267 268 266 261 256 253 251 249 250 251 252 254 256 257 254 252 252 254 257
245 246 247 247 248 249 249 249 250 247 242 238 234 231 228 227 229 233 239 246 254 264 273 282 291 299 305 310 315 318 320 323 326 328 330 332 333 334 334 334 333 332 332 335 336 333 329 329 333 334 334 334 332 329 323 314 306 298 289 283 280 277 274 273 271 267 264 263 265 266 264 259 256 258 259 259 258 257 257 257 255 255 257 260 262
243 244 244 245 245 246 247 247 247 244 239 235 231 228 226 227 229 233 239 245 253 262 272 281 290 298 305 310 314 318 321 324 328 331 332 334 337 338 338 338 338 337 336 339 341 339 334 331 333 336 336 335 333 327 317 307 303 300 296 293 291 286 279 275 272 268 266 268 270 272 271 268 266 265 263 262 261 260 259 260 262 262 263 264 265
243 243 243 243 243 244 244 245 244 242 237 232 230 228 227 228 230 233 238 245 253 261 270 279 288 296 303 308 313 318 322 326 330 333 334 336 339 340 341 342 343 342 340 341 344 345 342 338 337 339 341 341 339 333 320 305 299 297 294 292 292 290 285 280 277 275 274 275 276 277 276 275 274 272 267 262 261 261 263 265 267 268 268 268 266